星链-32853 (STARLINK-32853)

导读

STARLINK-32853是美国SpaceX星链计划中的一颗卫星,于2025年1月24日发射升空,归属美国所有。作为星链星座的组成部分,它承担着为全球范围用户提供低延迟、高速率卫星互联网接入服务的任务,进一步拓展了星链星座的全球覆盖能力与服务规模。

Basic Information
目录编号:
62818
目录名称:
STARLINK-32853
国际标识:
2025-018N
轨道中心:
EARTH
卫星名称:
星链-32853
卫星全名:
星链-32853 (STARLINK-32853)
卫星状态:
在轨 (已飞行506 天)
发射日期:
2025-01-24 UTC
国别 :
美国 (US)
星等 :
--
Orbit Information
数据来源 国际轨道数据 AOE轨道数据
星历时间 2026-06-14T02:39:07+0800
14小时前
查看轨道信息
2026-06-10T05:00:00+0800
4天前
查看轨道信息
半长轴 6851.286km 6853.209km
偏心率 0.0001598 0.000101
轨道倾角 53.159° 53.158°
近地点辐角 88.829° 55.911°
升交点赤经 223.011° 241.134°
平近点角 271.289° 35.364°
近地点 472.054km 474.379km
远地点 474.244km 475.765km
周期 94.063分钟 94.102分钟
每日圈数 15.308924 15.302482
Detailed Information
固有亮度:
5
最大亮度:
2.5
卫星平台:
Starlink V1.0
覆盖范围:
全球
运营商:
太空探索技术公司
运营商所在国:
美国
制造商(研发单位):
太空探索技术公司
制造商所在国:
美国
使用方式:
暂无
Satellite Introduction
Starlink 计划是 SpaceX 推出的全球卫星互联网项目,通过发射低轨道卫星,为全球尤其是偏远地区提供高速、低延迟的互联网服务。自 2019 年起,Starlink 已部署数千颗卫星,旨在缩小全球数字鸿沟,推动互联网普及。该项目还为军事、航空等行业提供通信支持,带来广泛经济效益。
2D Orbit Map
3D Orbit Map
Orbit Altitude Analysis Chart
Orbit Inclination Analysis Chart
Orbit Comprehensive Analysis Chart
View Comprehensive Chart